sat.trackr.live / text

‹ back to catalog

ONEWEB-0650

NORAD 55813 · 2023-029T

PAYLOAD ACTIVE UNKNOWN

§ Identity

Operator
Country
UK
Launch date
2023-03-09
Launch site
AFETR
Launch vehicle
Mass (kg)
RCS (m²)

Purposes: comms

External: N2YO · Heavens-Above · Gunter

§ Orbital elements

Epoch: 2026-09-20T00:00:28.382400Z

Period
109.11 min
Inclination
87.9104°
Eccentricity
0.0001665
Mean motion
13.19727508 rev/d
Perigee alt
1,184.5 km
Apogee alt
1,187.0 km
Semi-major
7,563.9 km
B*
9.3296e-6
RAAN
286.0824°
Arg perigee
73.4933°
Mean anomaly
286.6383°
Rev number
17,140

§ Raw data

ONEWEB-06501 55813U 23029T   26263.00032850  .00000017  00000+0  93296-5 0  99962 55813  87.9104 286.0824 0001665  73.4933 286.6383 13.19727508171402

JSON: /api/v1/satellites/55813 · /tle

For live sub-satellite position, see the globe view (requires WebGL).

§ Visibility from observer

Set your observer location to see the next 7 days of passes ≥ 10°. The values pass through the URL so the page stays shareable.

No JS? Fill the form by hand. The geolocation button needs JavaScript.